User: anonymous   Login
Location: Berg
(48.4333°N, 13.9167°E)
Time: 02:24:53
(UTC+00:00)
Language:

Resurs 01 Rocket - Orbit

View from above orbital plane
View from above orbital plane
View from above satellite
View from above satellite

Ground track
Ground track

The orbit data is extracted from the following two-line orbital elements,

1 23343U 94074B   20334.77140000  .00000094  00000-0  20734-4 0  9993
2 23343  97.9777  26.1130 0006491 349.8680 124.4166 14.76848716403029
Epoch (UTC): 29 November 2020 18:30:48
Eccentricity: 0.0006491
inclination: 97.9777°
perigee height: 635 km
apogee height: 644 km
right ascension of ascending node: 26.1130°
argument of perigee: 349.8680°
revolutions per day: 14.76848716
mean anomaly at epoch: 124.4166°
orbit number at epoch: 40302

The dashed part of the orbit path shows where the satellite is in the earth's shadow,  

DLR